DHK4206 KSYR-KMSP

Flight info

Callsign DHK4206
Flight time N/A
Altitude 36000
Route SYR DINES AHPAH Q816 AGDOX Q812 NOSIK ZOHAN IDIOM MUSCL4
Aircraft B77L/H-SDE1E2E3FGHIJ2J3J4J5M1RWXY/LB1D1

Departure

Time 2026-04-20 17:11
Airport Syracuse Hancock International Airport (KSYR)

Arrival

Time N/A
Airport Minneapolis–Saint Paul International Airport / Wold–Chamberlain Field (KMSP)
Time Latitude Longitude Altitude Speed Heading
2026-04-20 16:47 43.11100 -76.12424 432 ft 0 kts 357°
2026-04-20 16:58 43.11085 -76.12425 418 ft 3 kts 21°
2026-04-20 16:58 43.11071 -76.12443 421 ft 3 kts 65°
2026-04-20 16:59 43.11067 -76.12455 418 ft 0 kts 73°
2026-04-20 17:03 43.11069 -76.12440 421 ft 10 kts 79°
2026-04-20 17:03 43.11072 -76.12285 417 ft 18 kts 104°
2026-04-20 17:04 43.10996 -76.12176 416 ft 16 kts 145°
2026-04-20 17:04 43.10963 -76.12043 426 ft 15 kts 90°
2026-04-20 17:04 43.10967 -76.11890 422 ft 17 kts 88°
2026-04-20 17:04 43.10973 -76.11732 416 ft 17 kts 86°
2026-04-20 17:05 43.10979 -76.11574 419 ft 17 kts 87°
2026-04-20 17:05 43.10985 -76.11415 416 ft 17 kts 88°
2026-04-20 17:05 43.10989 -76.11257 417 ft 17 kts 88°
2026-04-20 17:05 43.10993 -76.11100 428 ft 17 kts 88°
2026-04-20 17:06 43.10998 -76.10936 425 ft 18 kts 88°
2026-04-20 17:06 43.11004 -76.10754 415 ft 19 kts 87°
2026-04-20 17:06 43.11011 -76.10572 418 ft 19 kts 87°
2026-04-20 17:06 43.11018 -76.10378 408 ft 22 kts 87°
2026-04-20 17:07 43.11024 -76.10169 414 ft 22 kts 88°
2026-04-20 17:07 43.11031 -76.09958 405 ft 22 kts 88°
2026-04-20 17:07 43.11037 -76.09748 414 ft 22 kts 87°
2026-04-20 17:07 43.11044 -76.09538 412 ft 22 kts 88°
2026-04-20 17:08 43.11048 -76.09399 414 ft 6 kts 88°
2026-04-20 17:08 43.11048 -76.09337 416 ft 7 kts 97°
2026-04-20 17:08 43.11046 -76.09325 414 ft 0 kts 105°
2026-04-20 17:10 43.10981 -76.09264 415 ft 20 kts 175°
2026-04-20 17:10 43.10927 -76.09352 410 ft 12 kts 261°
2026-04-20 17:10 43.10925 -76.09385 414 ft 2 kts 266°
2026-04-20 17:10 43.10913 -76.09722 408 ft 77 kts 267°
2026-04-20 17:11 43.10878 -76.10787 424 ft 143 kts 269°
2026-04-20 17:11 43.10844 -76.12362 580 ft 175 kts 269°
2026-04-20 17:11 43.10836 -76.13976 1467 ft 168 kts 275°
2026-04-20 17:11 43.11094 -76.15446 2382 ft 150 kts 302°
2026-04-20 17:12 43.11732 -76.16571 2839 ft 154 kts 307°
2026-04-20 17:12 43.12469 -76.17766 3053 ft 175 kts 317°
2026-04-20 17:12 43.13489 -76.18841 3272 ft 198 kts 322°
2026-04-20 17:12 43.14167 -76.19500 3383 ft 215 kts 323°
2026-04-20 17:13 43.14957 -76.20265 3550 ft 230 kts 323°
2026-04-20 17:13 43.16256 -76.21587 4028 ft 237 kts 316°
2026-04-20 17:13 43.17349 -76.23209 4013 ft 226 kts 305°
2026-04-20 17:13 43.17972 -76.25132 4039 ft 223 kts 281°
2026-04-20 17:14 43.18158 -76.27291 4567 ft 232 kts 277°
2026-04-20 17:14 43.18312 -76.29524 5248 ft 238 kts 277°
2026-04-20 17:14 43.18511 -76.31805 5978 ft 243 kts 278°
2026-04-20 17:14 43.18755 -76.34112 6793 ft 244 kts 279°
2026-04-20 17:15 43.19035 -76.36415 7581 ft 245 kts 280°
2026-04-20 17:15 43.19339 -76.38691 8314 ft 247 kts 280°
2026-04-20 17:15 43.19669 -76.41005 9060 ft 249 kts 281°
2026-04-20 17:15 43.20022 -76.43368 9799 ft 251 kts 281°
2026-04-20 17:16 43.20382 -76.45705 10423 ft 258 kts 281°
2026-04-20 17:16 43.20775 -76.48209 10626 ft 280 kts 281°
2026-04-20 17:16 43.21207 -76.50922 10828 ft 302 kts 281°
2026-04-20 17:16 43.21677 -76.53843 11019 ft 324 kts 281°
2026-04-20 17:17 43.22172 -76.56887 11499 ft 336 kts 281°
2026-04-20 17:17 43.22689 -76.60045 12147 ft 343 kts 281°
2026-04-20 17:17 43.23218 -76.63270 12880 ft 349 kts 280°
2026-04-20 17:17 43.23754 -76.66534 13646 ft 353 kts 280°
2026-04-20 17:18 43.24298 -76.69847 14378 ft 357 kts 279°
2026-04-20 17:18 43.24847 -76.73203 15063 ft 361 kts 278°
2026-04-20 17:18 43.25399 -76.76584 15774 ft 364 kts 277°
2026-04-20 17:18 43.25954 -76.79986 16487 ft 367 kts 277°
2026-04-20 17:19 43.26506 -76.83381 17181 ft 370 kts 276°
2026-04-20 17:19 43.27075 -76.86891 17894 ft 373 kts 275°
2026-04-20 17:19 43.27639 -76.90378 18575 ft 377 kts 274°
2026-04-20 17:19 43.28203 -76.93863 19144 ft 380 kts 274°
2026-04-20 17:20 43.28779 -76.97435 19669 ft 385 kts 274°
2026-04-20 17:20 43.29361 -77.01043 20192 ft 389 kts 274°
2026-04-20 17:20 43.29947 -77.04689 20713 ft 394 kts 274°
2026-04-20 17:20 43.30346 -77.07180 21066 ft 396 kts 274°
2026-04-20 17:21 43.30895 -77.10897 21573 ft 397 kts 270°
2026-04-20 17:21 43.31199 -77.14614 22073 ft 396 kts 264°
2026-04-20 17:21 43.31229 -77.18381 22601 ft 395 kts 261°
2026-04-20 17:21 43.31199 -77.22172 23133 ft 398 kts 261°
2026-04-20 17:22 43.31169 -77.25990 23646 ft 402 kts 260°
2026-04-20 17:22 43.31142 -77.29860 24125 ft 406 kts 260°
2026-04-20 17:22 43.31119 -77.33706 24611 ft 408 kts 261°
2026-04-20 17:22 43.31099 -77.37612 25123 ft 409 kts 261°
2026-04-20 17:23 43.31079 -77.41482 25587 ft 411 kts 261°
2026-04-20 17:23 43.31057 -77.45419 26020 ft 413 kts 261°
2026-04-20 17:23 43.31035 -77.49382 26483 ft 416 kts 261°
2026-04-20 17:23 43.31011 -77.53366 26937 ft 418 kts 261°
2026-04-20 17:24 43.30986 -77.57368 27351 ft 421 kts 261°
2026-04-20 17:24 43.30959 -77.61402 27768 ft 423 kts 262°
2026-04-20 17:24 43.30931 -77.65455 28185 ft 426 kts 262°
2026-04-20 17:24 43.30901 -77.69492 28578 ft 429 kts 262°
2026-04-20 17:25 43.30869 -77.73648 28943 ft 432 kts 262°
2026-04-20 17:25 43.30836 -77.77726 29296 ft 435 kts 262°
2026-04-20 17:25 43.30801 -77.81901 29659 ft 437 kts 262°
2026-04-20 17:25 43.30765 -77.86091 29991 ft 440 kts 262°
2026-04-20 17:26 43.30728 -77.90302 30365 ft 441 kts 262°
2026-04-20 17:26 43.30688 -77.94518 30722 ft 441 kts 263°
2026-04-20 17:26 43.30647 -77.98729 31061 ft 442 kts 263°
2026-04-20 17:26 43.30604 -78.02960 31368 ft 443 kts 263°
2026-04-20 17:27 43.30560 -78.07190 31640 ft 444 kts 264°
2026-04-20 17:27 43.30514 -78.11376 31942 ft 444 kts 264°
2026-04-20 17:27 43.30452 -78.15616 32250 ft 444 kts 263°
2026-04-20 17:27 43.30356 -78.19859 32559 ft 444 kts 263°
2026-04-20 17:28 43.30244 -78.24102 32817 ft 445 kts 263°
2026-04-20 17:28 43.30127 -78.28352 33095 ft 446 kts 263°
2026-04-20 17:28 43.30012 -78.32606 33399 ft 445 kts 264°
2026-04-20 17:28 43.29898 -78.36858 33687 ft 446 kts 264°
2026-04-20 17:29 43.29785 -78.41102 33963 ft 446 kts 264°
2026-04-20 17:29 43.29672 -78.45372 34216 ft 446 kts 264°
2026-04-20 17:29 43.29560 -78.49560 34464 ft 446 kts 264°
2026-04-20 17:29 43.29445 -78.53813 34678 ft 446 kts 264°